Location: Gollag?dem
(17.0207°N, 80.7261°E)
Time: 12:15:12
(UTC+00:00)

Kakehashi - Pass Details

Date: 03 August 2024
Orbit: 1035 x 17722 km, 30.1° (Epoch: 11 September)

Event Time Altitude Azimuth Distance (km) Brightness Sun altitude
Exits shadow 21:52:32 63° 311° (NW) 1,391 4.1 -32.2°
Maximum altitude 21:53:10 66° 340° (NNW) 1,415 4.2 -32.1°
Drops below altitude 10° 22:05:27 10° 63° (ENE) 5,852 8.4 -29.6°
Sets 22:13:09 0° 66° (ENE) 8,694 9.6 -28.0°
